| time (UTC) | temp C | wind direction | speed KPH | gust KPH | rain 1hr cm | rain 24hr cm | rain mn cm | humidity % | barometer mb |
| 20260903164422 | 12 | 53 | 0.0 | 0.0 | 0.00 | 0.00 | 0.00 | 79 | |
| 20260903163421 | 13 | 53 | 0.0 | 0.0 | 0.00 | 0.00 | 0.00 | 77 | |
| 20260903162421 | 13 | 53 | 0.0 | 0.0 | 0.00 | 0.00 | 0.00 | 75 | |
| 20260903161420 | 13 | 59 | 0.0 | 9.7 | 0.00 | 0.00 | 0.00 | 68 | |
| 20260903160420 | 13 | 54 | 0.0 | 0.0 | 0.00 | 0.00 | 0.00 | 70 | |
| 20260903155419 | 14 | 54 | 6.4 | 9.7 | 0.00 | 0.00 | 0.00 | 69 | |
| 20260903154419 | 15 | 77 | 0.0 | 0.0 | 0.00 | 0.00 | 0.00 | 68 | |
| 20260903153418 | 15 | 77 | 0.0 | 0.0 | 0.00 | 0.00 | 0.00 | 66 | |
| 20260903152417 | 15 | 67 | 3.2 | 3.2 | 0.00 | 0.00 | 0.00 | 64 | |
| 20260903151417 | 15 | 64 | 0.0 | 0.0 | 0.00 | 0.00 | 0.00 | 63 | |
| 20260903150416 | 15 | 64 | 0.0 | 0.0 | 0.00 | 0.00 | 0.00 | 66 | |
| 20260903145416 | 15 | 64 | 0.0 | 0.0 | 0.00 | 0.00 | 0.00 | 68 | |
| 20260903144415 | 14 | 64 | 0.0 | 12.9 | 0.00 | 0.00 | 0.00 | 66 | |
| 20260903143414 | 15 | 57 | 0.0 | 22.5 | 0.00 | 0.00 | 0.00 | 62 | |
| 20260903142510 | 15 | 59 | 3.2 | 14.5 | 0.00 | 0.00 | 0.00 | 59 | |
| 20260903142414 | 15 | 59 | 3.2 | 14.5 | 0.00 | 0.00 | 0.00 | 59 | |
| 20260903141413 | 17 | 47 | 0.0 | 6.4 | 0.00 | 0.00 | 0.00 | 59 | |
| 20260903140413 | 18 | 102 | 0.0 | 0.0 | 0.00 | 0.00 | 0.00 | 55 | |
| 20260903135412 | 18 | 102 | 0.0 | 0.0 | 0.00 | 0.00 | 0.00 | 51 | |
| 20260903134411 | 19 | 47 | 3.2 | 3.2 | 0.00 | 0.00 | 0.00 | 100 | |
| 20260903133411 | 18 | 63 | 0.0 | 0.0 | 0.00 | 0.00 | 0.00 | 56 | |
| 20260903132410 | 16 | 63 | 0.0 | 0.0 | 0.00 | 0.00 | 0.00 | 58 | |
| 20260903131410 | 17 | 63 | 0.0 | 0.0 | 0.00 | 0.00 | 0.00 | 61 | |
| 20260903130413 | 17 | 63 | 0.0 | 0.0 | 0.00 | 0.00 | 0.00 | 60 | |
| 20260903125410 | 17 | 63 | 0.0 | 0.0 | 0.00 | 0.00 | 0.00 | 59 | |
| 20260903124410 | 17 | 63 | 0.0 | 0.0 | 0.00 | 0.00 | 0.00 | 57 | |
| 20260903123411 | 18 | 63 | 0.0 | 0.0 | 0.00 | 0.00 | 0.00 | 54 | |
| 20260903122407 | 19 | 63 | 0.0 | 0.0 | 0.00 | 0.00 | 0.00 | 51 | |
| 20260903121406 | 18 | 50 | 0.0 | 9.7 | 0.00 | 0.00 | 0.00 | 54 | |
| 20260903120406 | 17 | 57 | 0.0 | 14.5 | 0.00 | 0.00 | 0.00 | 100 | |
| 20260903115405 | 16 | 56 | 0.0 | 17.7 | 0.00 | 0.00 | 0.00 | 57 | |
| 20260903114405 | 16 | 56 | 11.3 | 17.7 | 0.00 | 0.00 | 0.00 | 48 | |
| 20260903113404 | 16 | 59 | 9.7 | 19.3 | 0.00 | 0.00 | 0.00 | 49 | |
| 20260903112403 | 15 | 61 | 4.8 | 17.7 | 0.00 | 0.00 | 0.00 | 54 | |
| 20260903111403 | 15 | 56 | 4.8 | 16.1 | 0.00 | 0.00 | 0.00 | 52 | |
| 20260903110441 | 15 | 49 | 1.6 | 11.3 | 0.00 | 0.00 | 0.00 | 52 | |
| 20260903110402 | 15 | 49 | 1.6 | 11.3 | 0.00 | 0.00 | 0.00 | 52 | |
| 20260903105402 | 15 | 63 | 1.6 | 22.5 | 0.00 | 0.00 | 0.00 | 55 | |
| 20260903104401 | 15 | 52 | 0.0 | 16.1 | 0.00 | 0.00 | 0.00 | 56 | |
| 20260903103401 | 16 | 57 | 4.8 | 11.3 | 0.00 | 0.00 | 0.00 | 54 | |
| 20260903102400 | 16 | 49 | 0.0 | 16.1 | 0.00 | 0.00 | 0.00 | 52 | |
| 20260903101359 | 16 | 56 | 0.0 | 8.0 | 0.00 | 0.00 | 0.00 | 52 | |
| 20260903100359 | 16 | 40 | 0.0 | 25.7 | 0.00 | 0.00 | 0.00 | 55 | |
| 20260903095358 | 16 | 54 | 6.4 | 27.4 | 0.00 | 0.00 | 0.00 | 48 | |
| 20260903094359 | 17 | 60 | 0.0 | 9.7 | 0.00 | 0.00 | 0.00 | 49 | |
| 20260903093357 | 16 | 52 | 4.8 | 12.9 | 0.00 | 0.00 | 0.00 | 56 | |
| 20260903092357 | 15 | 54 | 0.0 | 12.9 | 0.00 | 0.00 | 0.00 | 53 | |
| 20260903091356 | 13 | 88 | 4.8 | 17.7 | 0.00 | 0.00 | 0.00 | 100 | |
| 20260903090355 | 13 | 60 | 12.9 | 27.4 | 0.00 | 0.00 | 0.00 | 61 | |
| 20260903085355 | 13 | 57 | 0.0 | 29.0 | 0.00 | 0.00 | 0.00 | 62 | |
| 20260903084354 | 13 | 50 | 0.0 | 12.9 | 0.00 | 0.00 | 0.00 | 60 | |
| 20260903083353 | 14 | 63 | 12.9 | 19.3 | 0.00 | 0.00 | 0.00 | 59 | |
| 20260903082353 | 14 | 59 | 1.6 | 19.3 | 0.00 | 0.00 | 0.00 | 59 | |
| 20260903081352 | 15 | 60 | 4.8 | 14.5 | 0.00 | 0.00 | 0.00 | 56 | |
| 20260903080352 | 15 | 64 | 0.0 | 17.7 | 0.00 | 0.00 | 0.00 | 56 | |
| 20260903075351 | 14 | 54 | 3.2 | 30.6 | 0.00 | 0.00 | 0.00 | 57 | |
| 20260903074350 | 14 | 54 | 16.1 | 29.0 | 0.00 | 0.00 | 0.00 | 57 | |
| 20260903073350 | 14 | 53 | 4.8 | 30.6 | 0.00 | 0.00 | 0.00 | 55 | |
| 20260903072349 | 13 | 63 | 4.8 | 19.3 | 0.00 | 0.00 | 0.00 | 57 | |
| 20260903070358 | 12 | 49 | 0.0 | 20.9 | 0.00 | 0.00 | 0.00 | 62 | |
| 20260903065358 | 11 | 63 | 17.7 | 25.7 | 0.00 | 0.00 | 0.00 | 65 | |
| 20260903064357 | 11 | 43 | 11.3 | 29.0 | 0.00 | 0.00 | 0.00 | 67 | |
| 20260903063357 | 11 | 60 | 9.7 | 22.5 | 0.00 | 0.00 | 0.00 | 68 | |
| 20260903062356 | 11 | 15 | 0.0 | 24.1 | 0.00 | 0.00 | 0.00 | 68 | |
| 20260903061356 | 11 | 57 | 9.7 | 22.5 | 0.00 | 0.00 | 0.00 | 71 | |
| 20260903060355 | 10 | 49 | 0.0 | 20.9 | 0.00 | 0.00 | 0.00 | 72 | |
| 20260903055354 | 10 | 61 | 4.8 | 14.5 | 0.00 | 0.00 | 0.00 | 75 | |
| 20260903054354 | 10 | 54 | 9.7 | 19.3 | 0.00 | 0.00 | 0.00 | 77 | |
| 20260903053353 | 10 | 70 | 9.7 | 25.7 | 0.00 | 0.00 | 0.00 | 77 |